Location: Unspecified
(0.0000°N, 0.0000°E)
Time: 01:20:56
(UTC+00:00)

Courier 1B - Visible Passes

Search period start: 25 May 2017 00:00
Search period end: 04 June 2017 00:00
Orbit: 963 x 1209 km, 28.3° (Epoch: 24 May)

Date Brightness Start Highest point End Pass type
(mag) Time Alt. Az. Time Alt. Az. Time Alt. Az.
25 May 7.4 19:52:35 10° NW 19:59:01 68° NNE 19:59:20 67° NE visible
26 May 9.7 05:31:56 10° SSW 05:37:22 20° SSE 05:42:52 10° ESE visible
26 May 8.0 18:59:03 10° NW 19:05:17 48° NNE 19:09:03 23° E visible
26 May 9.2 20:53:10 10° W 20:55:57 25° W 20:55:57 25° W visible
27 May 9.8 04:39:03 10° S 04:43:08 15° SSE 04:47:18 10° SE visible
27 May 7.5 19:59:09 10° WNW 20:05:34 64° SSW 20:05:41 64° SSW visible
28 May 9.9 03:47:54 11° SSE 03:48:51 11° SSE 03:50:42 10° SE visible
28 May 7.4 19:05:16 10° WNW 19:11:51 90° NE 19:15:26 29° ESE visible
28 May 9.7 21:00:51 10° W 21:02:20 15° WSW 21:02:20 15° WSW visible
29 May 9.3 04:44:31 11° SSW 04:50:01 25° SSE 04:56:09 10° E visible
29 May 7.7 18:11:31 10° NW 18:18:08 64° NNE 18:24:32 10° ESE visible
29 May 8.5 20:06:22 10° W 20:12:05 34° SSW 20:12:05 34° SSW visible
30 May 9.5 03:54:14 17° S 03:55:54 18° SSE 04:00:52 10° ESE visible
30 May 8.1 19:12:05 10° WNW 19:18:24 48° SSW 19:21:51 25° SSE visible
31 May 10.0 03:03:58 12° SE 03:03:58 12° SE 03:05:00 10° SE visible
31 May 8.7 04:50:52 15° SW 04:56:38 42° SSE 05:03:53 10° E visible
31 May 7.7 18:18:00 10° WNW 18:24:40 69° SSW 18:31:08 10° SE visible
31 May 9.3 20:14:31 10° WSW 20:18:30 19° SSW 20:18:30 19° SSW visible
01 Jun 8.9 04:00:36 27° S 04:02:39 31° SSE 04:09:12 10° E visible
01 Jun 8.9 19:19:39 10° W 19:25:03 26° SSW 19:28:15 18° SSE visible
02 Jun 9.5 03:10:20 21° SE 03:10:20 21° SE 03:14:12 10° ESE visible
02 Jun 8.0 04:57:15 17° SW 05:03:08 73° SSE 05:10:52 10° ENE visible
02 Jun 8.6 18:25:05 10° W 18:31:14 37° SSW 18:37:11 10° SE visible
03 Jun 8.2 04:06:59 40° SSW 04:09:12 53° SSE 04:16:35 10° ENE visible
03 Jun 9.5 19:28:23 10° WSW 19:31:53 15° SSW 19:34:36 12° S visible
